Forside
METAR-TAF:

METAR-TAF

Lufthavne :

Kuwait City, Kuwait

Breddekreds: 29-13N, længdekreds: 047-59E, højde: 55 m

Aktuelle vejr

Denne rapport blev lavet for 1 time og 2 minutter siden, kl. 20:00 UTC
Vind 10 kt fra nordvest
Temperatur 37°C
Fugtighed 15%
Tryk 998 hPa
Sigt 10 km eller mere
ingen skyer under 1500m og ingen cumulonimbus

METAR: OKBK 142000Z 31010KT CAVOK 37/06 Q0998 NOSIG

Tid: 00:02 (21:02 UTC)

Vejrudsigter

Denne rapport blev lavet for 4 timer og 17 minutter siden, kl. 16:45 UTC
Foreløbig gælder fra 14 på 18 UTC til 15 på 24 UTC
Vind 12 kt fra nordnordvest
Sigt: 7000 m
skyfri

TAF: OKBK 141645Z 1418/1524 33012KT 7000 SKC

Vejrobservationer og prognoser fra mere end 4000 lufthavne (METAR og TAF).

De gule og røde prikker repræsenterer de meteorologiske stationer.

Flyt musen over at se navnet på stationen.

Så klik over at se vejr observationer og prognoser.

At skifte det kort: Klik på de grønne knapper med et sort kors for at zoome ind; på den grønne knap med en bindestreg for at zoome ud; eller på de grønne pile for tilstødende kort.


METAR-TAF: